Home > Weather > Skagen > Past weeks

Flag for Denmark Past Weather in Skagen, Denmark — Yesterday and Last 2 Weeks

Now
43 °F

Quite cool.


Feels Like: 43 °F
Forecast: 60 / 67 °F
Wind: 2 mph from North

Location: Gothenburg / Save

Current Time: Aug 30, 2016 at 3:39:07 AM

Latest Report: Aug 30, 2016 at 3:20 AM


Visibility: 2 mi

Pressure: 29.98 "Hg

Humidity: 100%

Dew Point: 43 °F

Location of SkagenLocation

Past Weather in Skagen — Graph

°F

Skagen Temperature Yesterday

Maximum temperature yesterday: 63 °F (at 4:50 AM)
Minimum temperature yesterday: 48 °F (at 11:20 PM)
Average temperature yesterday: 59 °F

High & Low Weather Summary for the Past Weeks

 TemperatureHumidityPressure
High79 °F (Aug 25, 4:50 PM)100% (Aug 15, 5:50 AM)30.30 "Hg (Aug 15, 5:50 AM)
Low45 °F (Aug 30, 1:20 AM)40% (Aug 15, 1:50 PM)29.62 "Hg (Aug 29, 4:20 AM)
Average61 °F81%30.00 "Hg
* Reported Aug 15 2:20 AM — Aug 30 2:20 AM, Skagen, Weather by CustomWeather, © 2016

Note: Actual official high and low records may vary slightly from our data, if they occured in-between our weather recording intervals... More about our weather records

Advertising

Skagen Weather History for the Previous 24 Hours

Scroll right to see more
 ConditionsComfort  
Time TempWeatherWind HumidityBarometerVisibility
2:20 AM
Tue, Aug 30
45 °FFog.No wind100%29.98 "Hg0 mi
1:50 AM46 °FLight fog.No wind93%29.95 "Hg1 mi
1:20 AM45 °FLight fog.No wind100%29.95 "Hg0 mi
12:50 AM46 °FLight fog.No wind93%29.95 "Hg1 mi
12:20 AM46 °FLight fog.No wind93%29.95 "Hg1 mi
11:50 PM
Mon, Aug 29
48 °FFog.No wind94%29.95 "Hg0 mi
11:20 PM48 °FFog.No wind94%29.92 "Hg1 mi
10:50 PM50 °FPassing clouds.1 mph94%29.92 "Hg1 mi
10:20 PM50 °FPassing clouds.2 mph94%29.92 "Hg3 mi
9:50 PM52 °FClear.1 mph94%29.89 "Hg10 mi
9:20 PM54 °FClear.2 mph88%29.89 "Hg10 mi
8:50 PM55 °FSunny.3 mph82%29.89 "Hg10 mi
8:20 PM59 °FSunny.7 mph72%29.86 "Hg10 mi
7:50 PM59 °FClear.8 mph77%29.86 "HgN/A
7:20 PM61 °FPassing clouds.10 mph72%29.86 "HgN/A
6:50 PM61 °FScattered clouds.14 mph72%29.86 "HgN/A
6:20 PM61 °FPartly sunny.14 mph72%29.86 "HgN/A
5:50 PM59 °FSprinkles. Broken clouds.10 mph77%29.83 "HgN/A
5:20 PM61 °FScattered clouds.16 mph68%29.83 "HgN/A
4:50 PM59 °FScattered clouds.20 mph72%29.83 "HgN/A
4:20 PM61 °FPartly sunny.21 mph68%29.80 "HgN/A
3:50 PM61 °FPartly sunny.21 mph68%29.80 "HgN/A
3:20 PM59 °FPartly sunny.17 mph72%29.80 "HgN/A
2:50 PM59 °FOvercast.15 mph72%29.77 "HgN/A
2:20 PM57 °FPartly sunny.14 mph82%29.77 "HgN/A
1:50 PM57 °FPartly sunny.17 mph82%29.74 "HgN/A
1:20 PM57 °FPartly sunny.15 mph82%29.74 "HgN/A
12:50 PM57 °FMostly cloudy.15 mph88%29.71 "HgN/A
12:20 PM59 °FMostly cloudy.13 mph88%29.71 "HgN/A
11:50 AM59 °FPartly sunny.12 mph88%29.68 "HgN/A
11:20 AM57 °FPartly sunny.15 mph94%29.68 "HgN/A
10:50 AM59 °FMostly cloudy.13 mph88%29.65 "HgN/A
10:20 AM59 °FMostly cloudy.10 mph94%29.65 "HgN/A
9:50 AM59 °FMostly cloudy.13 mph94%29.62 "HgN/A
9:20 AM61 °FFog.15 mph94%29.62 "Hg5 mi
8:50 AM63 °FFog.5 mph94%29.62 "Hg6 mi
8:20 AM63 °FMore clouds than sun.6 mph94%29.62 "HgN/A
7:50 AM63 °FFog.5 mph88%29.62 "Hg4 mi
7:20 AM61 °FOvercast.6 mph94%29.62 "HgN/A
6:50 AM61 °FFog.6 mph94%29.62 "Hg4 mi
6:20 AM63 °FFog.6 mph94%29.62 "Hg4 mi
5:50 AM63 °FMostly cloudy.3 mph94%29.62 "Hg5 mi
5:20 AM63 °FFog.3 mph94%29.62 "Hg5 mi
4:50 AM63 °FFog.5 mph94%29.62 "Hg4 mi
4:20 AM61 °FMostly cloudy.1 mph100%29.62 "HgN/A
3:50 AM61 °FLight rain. Low clouds.6 mph94%29.65 "HgN/A
3:20 AM61 °FMostly cloudy.6 mph94%29.65 "HgN/A
Weather by CustomWeather, © 2016

See weather overviewHow to use our weather pages